{"data":{"norad_id":23802,"epoch":"2026-09-18T05:40:47.135424Z","epoch_age_seconds":206704,"freshness":"STALE","line1":"1 23802U 96013A   26261.23665666  .00000151  00000+0  00000+0 0  9996","line2":"2 23802  79.9864 225.9326 6565887 205.8914  96.3393  1.29845729146060","mean_motion":1.29845729,"eccentricity":0.6565887,"inclination_deg":79.9864,"raan_deg":225.9326,"arg_perigee_deg":205.8914,"mean_anomaly_deg":96.3393,"bstar":0,"rev_number":14606,"period_min":1109.0083679225,"perigee_km":5809.831138742,"apogee_km":52415.648453769,"semimajor_km":35490.876796256,"source":"CELESTRAK","updated_at":"2026-09-20T09:00:47.139419Z"}}